Regional Weather Roundup
Issued by NWS Kansas City/Pleasant Hill, MO

Home | Current Version | Previous Version | Text Only | Print | Product List | Glossary On
Versions: 1 2 3 4 5 6 7 8 9 10 11 12 13 14 15 16 17 18 19 20 21 22 23 24 25 26 27 28 29 30 31 32 33 34 35 36 37 38 39 40 41 42 43 44 45 46 47 48 49 50
000
ASUS43 KEAX 201910
RWREAX

WEATHER ROUNDUP FOR EASTERN KANSAS AND NORTHWEST MISSOURI
NATIONAL WEATHER SERVICE KANSAS CITY/PLEASANT HILL MO
200 PM CDT THU JUL 20 2017

KSZ040-057-103>105-MOZ028-029-037-043-202000-
...KANSAS CITY METROPOLITAN AREA...

CITY           SKY/WX    TMP DP  RH WIND       PRES   REMARKS
K.C. INTL      MOSUNNY   95  77  55 SW13      30.01F HX 109
K.C. DOWNTOWN  SUNNY     96  75  50 SW17      30.00F HX 108
LEES SUMMIT    SUNNY     95  74  50 SW13G20   30.03F HX 105
OLATHE - IXD   SUNNY     95  74  50 S16       30.03F HX 105
OLATHE - OJC   SUNNY     92  75  57 SW10G20   30.04S HX 103
LAWRENCE       SUNNY     98  75  47 S9        30.00F HX 110

$$

MOZ001>008-011>017-020>025-030>033-038>040-044>046-053-054-202000-
...NORTHERN AND CENTRAL MISSOURI...

CITY           SKY/WX    TMP DP  RH WIND       PRES   REMARKS
ST. JOSEPH     SUNNY     94  81  66 SW9       29.98F HX 115
MOSBY          CLEAR     93  72  49 S6        30.00F HX 100
WARRENSBURG    SUNNY     95  72  46 S14       30.03F HX 103
WHITEMAN AFB   SUNNY     96  74  48 SW13G20   30.02F HX 107
CLINTON        SUNNY     93  77  59 SW9       30.05F HX 107
SEDALIA        SUNNY     95  78  58 SW8       30.05F HX 111
WARSAW         NOT AVBL
CHILLICOTHE      N/A     94  79  61 SW7       30.00F HX 111
KIRKSVILLE     SUNNY     93  76  57 SW13      30.01F HX 105

$$

MOZ041-047>049-056>058-063>065-088>090-097-202000-
...EASTERN AND SOUTHERN MISSOURI...

CITY           SKY/WX    TMP DP  RH WIND       PRES   REMARKS
ST. LOUIS INTL PTSUNNY  100  65  31 SW13      30.03F HX 103
SPIRIT OF STL  SUNNY     96  73  47 SW9       30.02F HX 105
COLUMBIA       SUNNY     96  75  50 SW12      30.04F HX 108
JEFFERSON CITY SUNNY     96  74  48 W16       30.02F HX 107
ROLLA          SUNNY     93  74  53 S8        30.07F HX 103
OSAGE BEACH    SUNNY     96  72  45 W9G16     30.05F HX 104
SPRINGFIELD    SUNNY     92  71  50 VRB7      30.09F HX  98
BRANSON        MOSUNNY   93  68  43 W6        30.13F HX  97
JOPLIN         SUNNY     96  74  48 SW10      30.07F HX 107
WEST PLAINS    SUNNY     93  68  43 SW8       30.11F HX  97

$$

IAZ060-094-KSZ022-034>040-054-083-096-NEZ052-066-093-202000-
...KANSAS...SOUTHEAST NEBRASKA AND IOWA...

CITY           SKY/WX    TMP DP  RH WIND       PRES   REMARKS
TOPEKA         SUNNY     97  74  47 S8        29.99F HX 108
MANHATTAN      SUNNY    101  70  36 SW10G20   29.97F HX 108
EMPORIA        SUNNY     98  70  40 S17G23    30.01F HX 105
CHANUTE        SUNNY     96  71  44 S8G18     30.04F HX 103
WICHITA        MOSUNNY  100  65  31 SW14G26   30.00F HX 103
OMAHA          MOSUNNY   96  70  42 SE9       29.94F HX 102
LINCOLN        SUNNY     93  72  50 S5        29.97F HX 101
FALLS CITY     SUNNY     95  73  48 SW10      29.97F HX 104
LAMONI         SUNNY     91  77  63 SW10      29.99F HX 104
DES MOINES     MOSUNNY   94  73  50 VRB3      29.95F HX 103

$$




USA.gov is the U.S. government's official web portal to all federal, state and local government web resources and services.